Погода в Попках

Россия / Волгоградская область     50°11′14″N   44°30′08″E
темп.,
°C
ветер,
м/с
пор.,
м/с
влажн.,
%
обл.,
%
осадки,
мм/ч
давл.,
гПа
погр.,
м
23 апреля, пт
пт2300:00+10вюв22695 0.0 102315
03:00+9вюв2270100 0.0 102211
06:00+10вюв2371100 0.0 102242
09:00+13ююз2265100 0.1 1022510
12:00+14юв1254100 1.0 10201287
15:00+11юз2280100 2.8 1020204
18:00+10сз3491100 2.3 1020183
21:00+9ю119027 2.4 101912
24 апреля, сб
сб2400:00+8ююз12905 0.0 101711
03:00+7ююз2291100 0.0 101615
06:00+7ююз3692100 0.2 1015168
09:00+12юз61062100 0.5 1014983
12:00+13ююз895564 0.2 10131721
15:00+12юз81169100 0.6 10121680
18:00+7з6108889 2.1 1014794
21:00+6зюз488481 2.1 1015272
25 апреля, вс
вс2500:00+5зюз512824 0.2 1016346
03:00+4з6118244 0.2 1017477
06:00+3з611835 0.0 1018669
09:00+6з710555 0.0 10201120
12:00+9з78435 0.0 10201960
15:00+11з673791 0.0 10202292
18:00+10з354671 0.0 1020224
21:00+6ююз2253100 0.0 102013
26 апреля, пн
пн2600:00+6ю2253100 0.0 102014
03:00+5ююв2254100 0.0 101913
06:00+6юв2358100 0.0 101874
09:00+10юв3445100 0.0 1017821
12:00+11вюв2342100 0.0 10151502
15:00+11вюв2343100 0.0 10131663
18:00+8ююз4472100 0.0 1012414
21:00+6юз3583100 0.0 1012221
27 апреля, вт
вт2700:00+5зюз359275 0.0 1012107
03:00+4з48957 0.0 1012204
06:00+4зюз489364 0.0 1012322
09:00+6зсз687655 0.1 1013915
12:00+11з7104284 0.0 10132151
15:00+12з81138100 0.0 10122601
18:00+9зюз5947100 0.0 1013497
21:00+7зюз51060100 0.0 1015272